Regional Weather Roundup
Issued by NWS Sioux Falls, SD

Home | Current Version | Previous Version | Text Only | Print | Product List | Glossary Off
Versions: 1 2 3 4 5 6 7 8 9 10 11 12 13 14 15 16 17 18 19 20 21 22 23 24 25 26 27 28 29 30 31 32 33 34 35 36 37 38 39 40 41 42 43 44 45 46 47 48 49 50

921
ASUS43 KFSD 232310
RWRFSD

WEATHER ROUNDUP FOR SE SOUTH DAKOTA/SW MINNESOTA/NW IOWA
NATIONAL WEATHER SERVICE SIOUX FALLS SD
500 PM CST MON JAN 23 2017

NOTE: "FAIR" INDICATES FEW OR NO CLOUDS BELOW 12,000 FEET WITH NO
SIGNIFICANT WEATHER AND OR OBSTRUCTIONS TO VISIBILITY.


SDZ038>040-050-052>070-240000-
SOUTHEAST SOUTH DAKOTA

CITY           SKY/WX    TMP DP  RH WIND       PRES   REMARKS
BROOKINGS      CLOUDY    30  26  85 SE5       29.80R WCI  25
CHAMBERLAIN    CLOUDY    33  30  89 E14       29.71R WCI  23
HURON          CLOUDY    31  27  85 E9        29.78S WCI  23
MADISON        CLOUDY    28  28 100 SE6         N/A  WCI  22
MITCHELL       CLOUDY    33  28  81 E13       29.78F WCI  24
SIOUX FALLS    CLOUDY    31  28  89 E7        29.81S WCI  24
WINNER         CLOUDY    35  28  75 SE15      29.67R WCI  25
YANKTON        MOCLDY    32  27  80 E10       29.78S WCI  24
$$

MNZ071-072-080-081-089-090-097-098-240000-
SOUTHWEST MINNESOTA

CITY           SKY/WX    TMP DP  RH WIND       PRES   REMARKS
FAIRMONT       CLOUDY    32  30  92 CALM      29.84S
JACKSON        CLOUDY    30  28  93 CALM      29.83R
LUVERNE        CLOUDY    30  27  86 E3        29.81S
MARSHALL       CLOUDY    31  27  85 NE5       29.84R WCI  26
MONTEVIDEO     CLOUDY    32  32 100 CALM      29.85R
PIPESTONE      CLOUDY    30  28  93 SE3       29.80R
REDWOOD FALLS  CLOUDY    33  27  78 W3        29.84R
TRACY          CLOUDY    32  29  90 CALM      29.83R
WINDOM         CLOUDY    30  28  93 CALM      29.82S
WORTHINGTON    CLOUDY    30  28  92 VRB3      29.82R
$$

IAZ001>003-012>014-020>022-031-032-NEZ013-014-SDZ071-240000-
NORTHWEST IOWA

CITY           SKY/WX    TMP DP  RH WIND       PRES   REMARKS
CHEROKEE       CLOUDY    32  31  95 CALM      29.82F
DENISON        CLOUDY    32  30  93 CALM      29.81S
ESTHERVILLE    CLOUDY    31  30  96 NE3       29.82S
LE MARS        CLOUDY    32  28  86 SE6       29.83R WCI  26
ORANGE CITY    CLOUDY    30  28  93 CALM      29.82R
SHELDON        CLOUDY    32  32 100 E5        29.80S WCI  27
SIOUX CITY     MOCLDY    34  29  82 SE8       29.82R WCI  27
SPENCER        CLOUDY    32  29  88 CALM      29.82S
STORM LAKE     CLOUDY    32  28  86 CALM      29.81S
$$

ABBREVIATIONS USED IN REMARKS
   TC - TEMPERATURE IN CELSIUS
  WCI - WIND CHILL INDEX
   HX - HEAT INDEX
  VSB - VISIBILITY





USA.gov is the U.S. government's official web portal to all federal, state and local government web resources and services.